sat.trackr.live / text

‹ back to catalog

STARLINK-1020

NORAD 44725 · 2019-074N

PAYLOAD ACTIVE UNKNOWN

§ Identity

Operator
Country
US
Launch date
2019-11-11
Launch site
AFETR
Launch vehicle
Mass (kg)
RCS (m²)

Purposes: comms

External: N2YO · Heavens-Above · Gunter

§ Orbital elements

Epoch: 2026-05-25T03:29:18.380832Z

Period
92.76 min
Inclination
53.1583°
Eccentricity
0.0004027
Mean motion
15.52310791 rev/d
Perigee alt
407.2 km
Apogee alt
412.7 km
Semi-major
6,788.1 km
B*
9.7779e-4
RAAN
203.6633°
Arg perigee
16.9884°
Mean anomaly
343.1261°
Rev number
36,027

§ Raw data

STARLINK-10201 44725U 19074N   26145.14535163  .00060528  00000+0  97779-3 0  99912 44725  53.1583 203.6633 0004027  16.9884 343.1261 15.52310791360273

JSON: /api/v1/satellites/44725 · /tle

For live sub-satellite position, see the globe view (requires WebGL).

§ Visibility from observer

Set your observer location to see the next 7 days of passes ≥ 10°. The values pass through the URL so the page stays shareable.

No JS? Fill the form by hand. The geolocation button needs JavaScript.